GFSSE_con_sbcape_021.txt.gz
CAPE
61 126 371 424 445 916 1407 2475 2867 2874 2938 3040 3091 3107 2982 2806 2633 2857 2890 2647 2403 2482 1967 1745 1630 1553 1574 1647 1493 1444 1729 1312 1306 1133 1150 787 385 707 863 755 1423 1266 958
51 136 657 891 884 1534 2281 2342 2653 2720 2882 3009 3036 2959 2888 2474 2119 2660 2727 2211 2194 2412 1712 1709 1595 1572 1533 1443 1411 1355 1443 1474 1221 1266 1163 504 561 844 1168 1308 1132 932 680
93 280 425 1106 1312 1444 1732 2337 2401 2443 2770 2940 2948 2975 2755 2174 2272 2450 2103 1931 2161 1929 1581 1632 1682 1644 1552 1513 1373 1195 1177 976 1074 808 812 438 668 813 1035 1070 1449 1116 1041
134 133 544 1307 1614 1559 2013 2467 2382 2147 2055 2643 2813 2905 2773 2317 2445 2148 1792 1740 1640 1592 1507 1578 1567 1665 1629 1565 1496 1330 1164 983 931 1086 1017 706 570 669 1332 1487 1327 1098 783
132 212 657 1585 1936 1731 1877 2378 2375 2296 1979 2251 2510 2849 2700 2419 1910 1699 1598 1506 1484 1540 1589 1642 1608 1569 1667 1715 1483 1400 1282 1192 1398 1318 757 58 267 978 1357 1351 1344 1369 1474
291 726 1659 1853 1426 1957 2000 2195 1846 1999 2142 2381 2551 2835 2550 2267 1713 1537 1337 1345 1381 1539 1773 1666 1681 1575 1645 1640 1429 1297 1357 1444 1336 1139 218 429 451 1230 1036 1325 1301 1423 1275
434 869 1308 2238 2241 2266 2060 1957 2286 1837 1854 2425 2746 2652 2558 2241 1722 1395 1222 1193 1275 1471 1751 1552 1409 1497 1447 1532 1348 1232 1278 1454 932 736 884 205 914 1675 1499 1418 1200 1245 1410
511 850 1182 1932 2152 2538 2066 1947 2151 1900 1814 2455 2654 2547 2468 2377 2204 1734 1215 1219 1248 1484 1705 1650 1297 1496 1385 1293 1307 1320 1350 1183 991 860 640 642 1288 1300 929 1109 1103 1348 1371
363 596 1029 1345 1587 2211 2751 2284 1992 2038 2110 2388 2550 2397 2212 2060 1586 1533 1409 1237 1310 1448 1433 1544 1299 1397 1532 1433 1653 1735 1461 773 80 260 760 351 1815 1057 391 808 1252 1126 1339
480 755 950 1202 1282 1690 1768 1922 1847 2020 1908 1926 2058 1772 1744 1617 1577 1362 1768 1619 1305 1212 1279 1395 1535 1622 1804 2016 2076 1553 1641 592 0 28 336 224 1384 1418 1247 854 986 895 1044
717 741 946 1093 1191 1281 1214 1489 2011 1874 1812 1824 1752 2028 2088 1367 1205 1568 1685 1776 1280 1380 1305 1427 2126 2301 2325 2692 1927 1759 1471 32 0 0 408 1253 1767 1560 1148 1497 1276 1205 1187
760 923 953 979 1176 1159 1292 1335 1463 1363 1119 904 1131 1090 1390 961 538 1553 1749 1991 1362 1482 1748 1932 2194 2349 2212 1417 1395 1781 1328 27 82 60 61 642 2191 1989 1515 1141 1196 1343 1445
584 942 902 1147 1254 1044 1016 1081 1251 1058 653 439 595 989 1013 1086 634 559 800 695 904 1399 958 1277 1593 1491 912 1360 883 315 279 2 244 204 144 1249 2225 2093 2047 1394 1323 1073 1446
563 664 797 1070 1176 982 1254 1064 1051 827 582 580 889 1466 1305 1010 402 990 1164 603 937 1242 1056 1290 1178 867 1239 682 655 396 253 719 1072 816 510 1637 1976 2397 2232 2190 1664 1669 1201
605 642 853 959 912 1074 836 369 602 795 897 914 1161 1450 948 1126 845 435 1510 937 1129 863 1281 925 1494 1136 1066 1196 943 458 160 0 100 943 1043 2322 2071 2531 2311 2248 1744 1856 1951
742 812 1037 1082 1032 1047 889 1254 1204 701 1036 1083 1487 1294 1229 935 782 1379 1322 1049 1425 1319 1668 1385 1082 1126 1146 1414 1333 1013 636 4 10 125 981 1388 2198 1938 2538 2358 2388 2015 1981
652 777 1129 890 1664 1443 994 1863 1687 1456 477 216 1329 1537 1472 1557 1262 1552 1445 1134 1642 1453 1592 1323 1031 1165 1316 1253 1023 822 109 3 11 10 116 992 1313 1808 2071 2807 2712 2473 2135
574 1097 1229 1474 1500 1914 1346 1940 1350 949 1403 1082 627 1565 1578 1625 1760 1315 1749 1603 1255 1223 895 792 847 823 872 397 0 0 0 2 21 16 10 182 950 1068 1874 2389 2263 2459 2182
839 1253 1244 1202 1036 1159 1691 2154 1357 1069 1586 789 1493 1322 1589 1925 1748 1375 1632 1498 1424 1133 989 958 519 512 15 0 0 0 0 60 15 52 28 14 46 758 1095 1970 2149 2091 1816
1085 1131 960 1125 1107 894 1919 1853 1651 1410 1666 1632 1309 745 855 1653 1861 1427 1297 1493 1236 916 1026 544 488 301 0 0 0 0 1 5 4 96 36 25 19 896 1080 1042 1070 1145 1809
1259 1069 1221 1309 1468 1280 1741 1767 1870 1368 1730 1129 1130 1460 1572 1555 1693 1370 1125 1347 1466 1080 928 467 158 0 0 15 0 23 27 77 21 17 0 0 0 324 599 713 900 979 1139
1068 1057 972 1377 2367 1549 1577 1515 1484 1458 1592 1575 1590 1986 1827 1754 1741 1241 1198 1372 1287 1274 836 23 0 0 3 105 0 0 45 69 74 20 0 0 0 0 327 440 501 540 825
797 1188 1201 1300 2292 2099 1629 1654 1586 1566 1633 1353 1407 1589 1831 1870 1941 1576 1472 1352 1315 803 149 0 0 7 3 133 0 0 10 28 90 40 1 0 0 0 0 0 0 171 343
744 1293 1261 1479 2355 1669 1872 1476 1474 1201 1167 1375 1530 1710 1950 1816 1628 1558 1464 1294 745 373 121 17 3 2 34 0 60 1 0 0 2 32 13 0 0 0 0 0 0 0 176
803 1082 1555 1574 1742 1769 1983 1437 1394 1303 942 1316 1017 1408 2168 1557 1523 1589 1510 1361 331 173 256 51 0 0 41 87 42 173 0 3 0 0 9 9 28 0 0 0 0 0 0
851 1218 1823 1786 1758 2166 1358 1813 1691 1686 1419 1277 1192 1795 1657 1580 1168 1650 1451 599 193 0 120 23 87 20 3 52 0 6 0 0 0 0 0 0 6 9 6 2 0 0 0

GFSSE_con_sbcape_024.txt.gz
CAPE
16 76 347 433 559 1073 1820 2123 2502 2997 3087 3079 2996 2794 2496 2245 2434 2388 2412 1977 1989 1851 1705 1701 1679 1709 1738 1490 1330 1679 1416 1523 1205 1152 650 387 984 988 1139 1452 1504 624 500
18 101 689 684 1059 1693 2084 2506 2770 2962 2880 2954 2906 2554 2147 1952 2038 2078 2095 1929 1837 1725 1709 1713 1669 1689 1615 1551 1513 1634 1527 1409 1542 1211 564 429 882 1058 1111 1534 1220 433 1103
38 211 517 981 1416 1756 2424 2641 2583 2636 2416 2897 2869 2319 2008 2020 2090 2027 1901 1809 1739 1603 1615 1750 1823 1694 1664 1570 1444 1362 1166 1091 1210 831 675 480 597 1117 1517 1199 818 1100 1320
143 244 533 1147 1502 2020 2247 2558 2655 2299 2068 2778 2556 2283 1982 2079 2038 1853 1791 1666 1546 1583 1619 1625 1683 1748 1684 1614 1540 1360 1229 1078 1036 1112 636 617 270 1166 1247 1393 1001 933 1148
120 377 696 1434 1933 2067 2157 2420 2501 2318 1879 2155 2047 1805 1795 1857 1783 1621 1525 1485 1586 1667 1730 1703 1625 1637 1725 1625 1549 1355 1139 1390 1284 1345 853 181 374 1356 1387 1316 810 1349 1432
153 483 1289 1560 1401 1931 1946 2070 1776 1790 1711 2017 2273 1869 1758 1800 1572 1386 1392 1424 1578 1806 1843 1643 1622 1578 1622 1651 1438 1394 1649 1306 649 247 37 696 601 1186 1072 1439 1419 1330 1311
321 662 1084 1983 2069 1949 1950 1747 1902 1647 1603 2080 2210 1783 1715 1732 1428 1323 1290 1355 1487 1668 1847 1466 1500 1443 1552 1610 1479 1226 1680 1537 385 316 477 549 975 1858 1723 1435 1293 1265 624
665 1048 1319 1731 2103 2105 1689 1653 1658 1488 1679 2148 2108 1914 1762 1760 1481 1285 1276 1293 1391 1635 1728 1634 1401 1552 1443 1409 1435 1971 1837 1207 677 423 877 435 1609 1902 1512 1470 1143 1135 641
850 1075 1282 1309 1178 1671 2226 1813 1689 1481 1645 1940 1936 2070 1940 1658 1537 1206 1215 1299 1419 1537 1550 1619 1387 1444 1459 1415 1816 1796 1018 224 95 646 929 250 1901 1363 1210 1208 1360 1411 908
752 890 1031 1167 1347 1695 2029 1995 1909 1697 1725 1867 1964 1861 1789 1769 1587 1460 1599 1679 1481 1370 1329 1436 1599 1641 1514 1444 1540 1578 939 487 115 185 464 447 1145 590 701 1411 1312 1410 1175
511 835 1028 1070 1213 1434 1427 1591 2045 1826 1816 1885 1840 1867 2099 1259 1149 1612 1713 1789 2075 1521 1481 1449 1741 1858 1806 1772 490 1131 1595 0 0 119 632 1067 1089 1423 1222 786 1420 939 1244
586 670 974 1006 1124 1098 1401 1169 1257 1263 1379 1227 1318 1150 1446 988 717 1351 1689 2095 1773 1634 1752 1772 1901 2107 1627 926 1182 2028 246 0 2 0 87 1157 1595 1681 1329 1696 1313 1335 1421
633 770 824 901 966 971 1036 980 1017 931 789 537 509 611 695 802 642 1011 554 1132 1024 1466 740 1063 1398 1004 1149 985 368 176 432 6 73 235 10 933 1697 1889 1655 1396 1603 1512 1506
667 865 806 820 890 796 564 1023 937 833 479 224 164 361 623 686 274 325 539 773 504 937 1024 1059 1162 886 1088 663 590 91 48 17 320 260 141 1403 1959 2053 1606 1602 1420 1544 1666
754 858 840 859 887 726 660 576 472 663 430 231 229 495 777 683 285 374 739 863 771 573 905 770 1112 937 893 1082 801 388 34 442 859 687 165 1330 2252 2555 2084 1912 1724 1603 1477
726 657 874 835 860 675 847 345 280 440 502 401 607 764 732 680 392 419 715 941 1156 1073 1026 1055 913 772 990 1024 1341 1147 515 11 476 555 541 1414 2139 2405 2514 2615 1967 1835 2042
554 568 706 816 701 722 627 320 373 593 761 548 741 855 944 613 665 1170 1112 679 1139 937 1385 826 689 606 921 504 332 97 33 1 17 256 652 742 1224 2083 2261 2549 2355 2050 1882
506 470 627 757 807 701 466 533 1009 781 217 412 841 899 1059 1009 838 1056 1054 1146 779 851 561 449 569 451 23 0 0 0 0 1 17 16 267 335 912 840 1804 2282 2744 2487 1716
494 578 709 597 686 1073 564 1140 708 500 787 346 572 1056 985 1181 1241 821 1016 934 1004 829 733 702 229 189 0 0 0 0 0 10 14 16 14 87 524 735 645 1521 1940 2090 1767
425 752 763 603 836 1200 805 1287 771 446 728 772 778 950 1266 1400 1415 843 903 1124 795 566 681 210 197 171 0 0 0 0 0 0 4 0 13 0 138 479 904 819 797 978 1475
409 856 776 850 817 861 1191 1248 1046 796 958 941 759 485 661 1256 1313 968 799 1010 796 421 526 135 2 0 0 0 0 0 11 2 4 4 0 0 183 275 553 652 817 964 1349
806 904 800 778 677 504 996 1068 1109 931 986 1003 762 924 649 1064 1337 1053 663 807 897 804 418 8 0 0 0 0 0 0 0 1 8 0 0 6 31 343 328 401 311 464 233
795 752 709 863 859 649 749 1038 935 905 975 1126 1054 1425 1513 1284 1373 1042 637 795 801 549 169 0 0 0 0 0 0 0 0 0 27 3 0 0 0 6 14 38 111 391 19
577 703 700 1027 1115 935 997 1275 1205 1189 1079 851 889 1083 1424 1422 1357 1175 932 743 335 282 0 0 0 0 0 0 0 0 0 0 0 2 0 0 0 0 0 0 0 259 0
451 597 544 924 1576 1364 1194 1151 1146 833 691 692 832 1124 1082 1358 1261 1102 915 677 105 34 0 0 0 2 1 0 0 6 0 0 0 0 0 0 0 0 0 0 0 10 13
313 657 662 665 1451 1499 1235 1131 1067 860 624 622 692 818 1324 1188 1057 1049 956 695 30 0 0 0 0 0 21 7 2 6 0 0 0 0 0 0 0 0 0 0 0 0 5

GFSSE_con_sbcape_027.txt.gz
CAPE
25 142 412 436 432 1179 1637 2013 2719 2855 2833 2710 2653 2323 2120 2184 2143 1965 1912 1905 1889 1804 1761 1760 1816 1712 1409 1573 1460 1507 1403 1278 1001 590 499 1181 1132 1392 1299 1374 778 447 1249
13 109 443 639 1183 1507 1676 2429 2660 2810 2485 2418 2324 2059 1980 1837 1990 2068 2052 1848 1787 1762 1732 1703 1799 1724 1595 1505 1532 1497 1661 1403 1071 550 360 960 958 1034 1420 1368 518 441 795
46 198 648 1198 1245 1666 1756 2390 2436 2245 2156 2209 2031 1877 1887 1900 1944 1892 1838 1803 1663 1622 1628 1867 1763 1755 1637 1441 1272 1332 1213 1064 950 726 783 442 698 1531 1514 859 859 1383 1280
112 189 576 1357 1568 1730 1853 2394 2468 2115 2179 1992 2016 2005 1969 2004 1882 1778 1747 1566 1557 1626 1638 1635 1751 1739 1678 1577 1286 1284 1288 1256 1194 912 484 422 689 1417 1170 820 882 1197 1295
180 346 721 1327 1572 1740 1831 2116 2466 2218 1957 1852 1854 1943 1982 1879 1727 1597 1525 1586 1628 1718 1739 1700 1659 1719 1779 1534 1320 1025 1208 1342 1536 1239 348 134 518 1243 1492 800 805 1475 1345
289 500 1028 1464 1560 1754 1736 1817 1795 1856 1919 1862 1714 1837 1904 1713 1511 1434 1463 1590 1723 1876 1672 1613 1592 1681 1702 1500 1334 973 1590 1244 1284 615 76 745 691 1394 1374 1001 1486 1419 1553
375 568 1067 1758 2079 1959 1698 1617 1545 1585 1984 2029 1842 1799 1851 1570 1376 1378 1386 1486 1615 1827 1811 1492 1626 1463 1579 1434 1210 1299 1618 863 199 318 465 533 701 1484 1451 1347 1401 1224 1513
440 764 1110 1604 1714 1828 1702 1656 1587 1543 1901 2063 1866 1798 1834 1657 1396 1395 1364 1390 1519 1764 1722 1567 1515 1555 1315 1211 1663 1892 1835 1296 492 523 611 706 1426 1653 1517 1375 1197 596 1184
816 1023 1097 1037 1229 1611 1720 1671 1562 1549 1887 1966 1997 1867 1765 1786 1511 1373 1346 1381 1456 1438 1577 1617 1387 1418 1364 1253 1590 1735 1658 1106 266 415 663 502 2016 1865 1559 1167 1183 839 888
1000 1126 1100 920 937 1301 1372 1705 1547 1516 1683 1932 1936 1937 1883 1733 1491 1468 1465 1482 1527 1389 1340 1467 1361 1474 1411 1630 1532 1849 776 466 162 314 426 331 1920 1272 1103 1325 1223 1368 624
911 984 1006 1013 974 1424 1580 1482 1685 1580 1645 1788 1861 1885 2158 1319 1157 1519 1647 1781 1839 1581 1505 1506 1491 1515 1761 1679 930 1711 1407 0 0 101 543 714 1599 753 938 1425 1244 1463 1205
631 930 1020 930 1190 1301 1775 1366 1427 1178 1228 1516 1543 1337 1575 942 706 1228 1702 1967 1665 1686 1727 1860 1613 1791 1267 940 987 1635 1260 0 0 0 37 1164 1555 1415 1083 979 1482 1138 1300
513 793 977 947 1119 1137 1345 947 1051 947 1010 956 874 805 747 898 513 973 758 1207 847 1390 738 935 1130 658 1200 678 253 170 396 0 0 0 0 886 1616 1876 1529 1643 1369 1345 1547
449 549 825 879 998 868 643 891 959 853 632 479 255 270 389 437 469 413 515 604 404 574 889 901 943 893 699 669 397 179 357 0 0 190 12 917 1876 1944 1514 1481 1676 1560 1579
477 498 646 740 785 856 447 765 631 605 532 273 112 104 366 454 392 175 452 615 424 569 1022 781 949 858 566 862 575 30 162 21 80 340 81 1225 1895 2231 1840 1533 1566 1607 1830
531 588 631 613 597 629 419 235 315 337 355 189 120 154 548 549 504 261 301 808 892 1121 975 1071 936 579 738 826 1064 605 35 85 383 605 241 183 1881 1833 2548 1898 1674 1606 1580
553 660 636 600 569 536 432 353 144 157 336 356 360 353 504 628 443 272 454 533 727 784 1177 922 492 469 336 12 0 0 3 17 13 724 334 433 954 1831 1601 2480 2605 2204 1402
515 665 610 775 673 537 529 306 265 185 494 595 356 674 664 631 377 577 589 562 664 858 803 311 318 126 0 0 0 0 0 4 9 169 362 469 712 810 1266 1856 2455 2104 1670
388 472 547 685 635 589 443 303 351 654 472 353 295 571 736 705 715 738 838 859 641 496 573 512 122 22 0 0 0 0 0 5 14 6 38 12 414 626 385 1166 1752 1987 1572
318 301 431 579 488 659 255 379 409 315 416 223 410 672 707 863 1175 734 598 804 755 552 501 80 22 9 0 0 0 0 0 0 0 16 22 3 24 418 599 497 561 751 1483
287 302 360 391 345 541 440 642 539 353 338 603 629 623 793 988 1155 875 578 740 561 423 419 52 0 0 0 0 0 0 0 0 0 0 0 15 345 564 416 334 432 960 971
259 336 417 375 271 480 679 701 787 481 381 493 638 481 446 1002 1067 870 508 710 582 369 248 11 0 0 0 0 0 0 0 0 0 0 0 42 154 322 302 370 315 398 257
122 331 471 445 420 450 683 637 581 554 634 746 627 642 651 495 987 989 485 525 575 430 289 0 0 0 0 0 0 0 0 0 0 0 0 4 22 39 40 75 96 139 0
149 235 493 480 478 377 592 818 874 726 645 664 781 784 1136 1297 1004 868 620 459 500 410 68 0 0 0 0 0 0 0 0 0 0 0 0 0 0 0 0 0 19 166 0
272 378 553 512 503 410 317 700 679 585 643 499 519 841 823 984 982 970 678 490 247 165 0 0 0 0 0 0 0 0 0 0 0 0 0 0 0 0 0 0 0 59 15
320 549 550 517 558 510 387 574 696 721 559 461 388 666 730 830 961 927 731 425 17 8 0 0 0 0 0 0 0 0 0 0 0 0 0 0 0 0 0 0 0 0 33

GFSSE_con_sbcape_030.txt.gz
CAPE
164 184 514 474 794 1289 1374 1954 2692 2870 2870 2823 2631 2397 2096 2270 2054 1783 1838 1842 1786 1783 1809 1865 1519 1332 1550 1387 1588 1223 1192 980 593 551 972 994 1486 1296 1506 837 923 1341 1811
66 203 593 620 1374 1562 1681 2438 2552 2589 2492 2520 2555 2300 1929 1811 1957 1914 1760 1770 1846 1828 1676 1793 1678 1481 1436 1410 1549 1536 1398 1167 590 250 1070 1107 1151 1136 1353 573 617 973 1615
10 172 305 1319 1602 1761 2437 2520 2329 2068 1956 2143 2164 1917 1806 1863 1767 1699 1780 1677 1604 1615 1893 1759 1736 1699 1571 1298 1305 1321 1278 1006 785 558 1091 708 888 1397 1139 629 1155 833 1159
56 241 321 1630 1930 1897 2254 2311 2463 1817 1845 1902 1928 1970 1965 1848 1732 1687 1560 1516 1626 1686 1589 1693 1743 1667 1616 1296 1169 1237 1221 1126 1008 649 641 530 1259 1257 865 1351 1413 1390 1416
116 261 693 1499 1942 1803 1805 2005 2547 1978 1930 1920 1915 1969 1905 1743 1631 1502 1496 1609 1668 1787 1714 1639 1710 1775 1559 1340 988 1011 1278 1399 1471 668 254 260 1009 1385 1013 907 1161 1403 1484
276 373 1345 1631 1640 1910 1778 2066 2119 1792 1738 1766 1882 1906 1777 1593 1460 1447 1517 1640 1828 1841 1631 1583 1569 1630 1525 1333 1114 1278 1436 1236 1515 570 222 1195 1038 1562 667 1433 1557 1576 1573
346 607 1221 2135 2064 1999 1751 1906 1868 1861 1823 1726 1817 1879 1666 1470 1399 1379 1400 1535 1706 1912 1746 1615 1463 1457 1397 1298 1101 1173 1237 1260 581 390 693 787 1104 1707 1371 1582 1519 1650 1618
433 724 1036 1787 1871 1832 1613 1594 1594 1834 1945 1806 1733 1820 1697 1451 1428 1388 1350 1409 1655 1749 1742 1453 1568 1457 1232 1208 1502 1674 1143 760 485 659 791 868 1475 1665 1453 1416 1005 1505 1617
543 785 912 1023 1469 1643 1664 1565 1518 1658 1933 1907 1847 1782 1818 1604 1386 1391 1355 1425 1473 1460 1587 1437 1383 1397 1344 1282 1604 1614 1640 1068 398 847 834 1027 1931 1785 1521 1003 890 657 1528
768 864 794 806 1001 1148 1347 1614 1487 1602 1873 1911 1940 1841 1698 1681 1471 1488 1471 1487 1719 1474 1367 1490 1355 1513 1467 1495 1588 1662 1109 784 377 785 680 919 1728 1634 1603 1311 1471 662 1135
905 879 801 717 666 989 1047 1239 1500 1505 1621 1815 1782 1851 1654 1271 1156 1533 1849 2011 1867 1673 1501 1530 1462 1566 1722 1782 1468 1625 1212 77 162 346 641 746 1660 1296 1147 1643 1542 984 1024
662 864 828 755 749 1092 1507 1239 1108 947 1048 1100 1454 1309 1453 1108 586 1450 1902 2244 1738 1718 1449 1696 1776 1557 1314 1313 1375 1519 1053 11 0 174 371 809 1525 995 1119 1628 1327 1591 1402
493 841 933 794 849 1117 1503 1113 1013 910 926 1002 1091 1011 788 1043 645 708 1018 1086 801 1286 1145 786 1059 918 1271 841 407 398 736 2 9 0 0 1088 1395 1546 1300 1095 1612 1233 1383
461 673 906 827 940 935 899 930 859 835 709 670 625 510 346 305 316 462 732 658 591 651 1173 1247 1100 1072 749 995 384 444 556 0 13 151 2 804 1517 1686 1467 1687 1392 1398 1478
342 566 810 798 904 898 561 703 699 695 712 501 285 148 210 362 447 234 357 589 625 733 939 1005 1201 919 635 949 635 172 284 98 96 214 158 756 1468 1916 1561 1594 1864 1629 1566
262 381 601 714 743 790 599 374 520 390 428 275 166 68 143 345 334 258 317 588 1093 1040 1164 1105 982 932 931 913 1163 694 189 200 271 515 502 238 1679 1828 2031 1543 1503 1612 1593
275 259 438 556 546 574 491 121 143 232 290 206 133 106 206 369 463 479 358 530 683 860 948 924 608 662 66 5 1 0 14 106 29 772 683 336 777 1343 1791 1983 1756 1658 1576
353 380 414 518 461 336 297 131 76 39 78 176 196 489 467 455 404 402 534 526 655 690 985 488 462 182 0 0 0 0 0 10 8 371 686 559 835 925 1011 1566 2320 1931 1281
380 470 480 439 385 321 198 132 175 75 75 283 274 383 427 481 487 495 638 685 568 604 611 586 194 27 0 0 0 0 3 17 19 51 294 626 417 962 632 813 1462 1566 1312
366 479 485 472 444 349 243 152 91 227 249 161 136 365 543 675 753 641 630 814 778 587 559 189 94 0 0 0 0 0 0 0 19 43 49 21 144 922 711 735 1135 975 1167
278 385 395 461 462 410 210 152 257 360 294 311 275 434 645 738 995 813 583 746 735 647 590 128 5 0 0 0 0 0 0 0 0 0 3 236 706 719 698 646 740 1254 1187
228 230 317 409 411 436 418 288 325 400 177 353 496 499 638 824 954 911 614 704 562 419 298 69 0 0 0 0 0 0 0 7 0 0 7 93 428 562 608 624 702 674 646
144 207 210 320 359 327 468 345 271 219 313 352 370 470 367 686 1020 1035 605 601 543 404 281 52 0 0 0 0 0 0 0 0 0 0 0 5 148 173 199 308 386 221 115
131 106 200 206 238 215 336 423 546 625 619 549 434 464 608 488 640 1034 648 488 541 454 279 45 0 0 0 0 0 0 0 0 0 0 0 0 0 21 16 8 188 365 27
108 72 154 215 220 230 293 454 461 543 541 220 341 534 583 852 854 967 777 511 472 427 226 2 0 0 0 0 0 0 0 0 0 0 0 0 0 0 0 0 0 224 135
143 41 114 192 239 235 240 443 474 494 295 214 260 491 498 632 793 897 725 590 413 264 107 0 0 0 0 0 0 0 0 0 0 0 0 0 0 0 0 0 0 0 206

GFSSE_con_sbcape_033.txt.gz
CAPE
224 400 603 661 854 1188 1902 2144 2488 3030 3059 2867 2491 2054 2163 2158 1812 1780 1782 1728 1801 1933 1842 1546 1523 1622 1458 1634 1265 1265 1024 710 635 871 1261 1409 1174 1219 905 1387 1515 1241 1830
227 374 632 817 1122 1445 1880 2118 2499 2899 2636 2432 2493 2308 1861 1746 1829 1770 1681 1829 1914 1706 1745 1714 1498 1509 1434 1581 1354 1458 1233 782 324 983 1070 1207 1255 1259 696 748 969 1616 1736
147 295 501 1278 1580 1661 1873 2650 2680 2455 2245 2453 2226 1739 1784 1849 1727 1754 1679 1593 1569 1603 1742 1501 1698 1623 1247 1272 1433 1290 1107 964 491 940 856 730 815 1121 467 625 1086 1505 1642
162 236 593 1354 1975 1946 2330 2684 2577 1910 1964 2030 1845 1787 1724 1748 1747 1660 1575 1675 1866 1756 1711 1801 1753 1594 1263 1214 1192 1089 1166 1163 650 883 784 836 756 842 1100 1238 1249 1251 1101
69 306 1194 1607 2303 2135 2170 2304 2498 2248 1907 1944 1892 1876 1819 1718 1620 1539 1649 1801 2014 1884 1668 1730 1737 1696 1403 1154 993 940 1141 1393 998 431 752 1102 837 945 1207 1380 1424 1579 1240
162 420 1479 1985 1807 2104 2095 2199 1878 1915 1926 1926 1936 1842 1689 1579 1471 1550 1669 1898 1936 1676 1528 1499 1633 1617 1380 1284 1082 1269 1122 1342 1386 403 290 1195 1214 1043 846 1321 1423 1523 1358
272 782 1149 2263 2310 2078 2105 2160 1788 1755 1796 1899 1920 1790 1620 1460 1426 1474 1537 1671 1848 1821 1558 1490 1383 1428 1319 1267 1208 1149 1316 1473 1253 547 806 1125 1275 1337 1429 1537 1658 1664 1657
373 677 952 1719 2027 2069 1950 1880 1815 1793 1780 1852 1918 1776 1576 1513 1483 1439 1450 1583 1750 1653 1442 1475 1462 1314 1223 1475 1358 1497 968 817 867 524 879 1220 1340 1328 1522 1458 1597 1614 1612
545 800 907 955 1567 1652 1707 1673 1782 1914 1869 1837 1800 1866 1712 1503 1458 1418 1433 1498 1447 1468 1432 1317 1399 1396 1274 1564 1512 1602 1515 774 836 695 527 1138 1450 1477 1683 996 1299 1614 1325
638 816 1174 809 1039 1218 1397 1562 1561 1786 1906 1919 1840 1762 1651 1633 1458 1520 1522 1438 1697 1364 1398 1409 1393 1462 1452 1482 1576 1689 1033 926 873 963 725 1333 1531 1707 1238 1300 562 1514 860
746 798 891 923 1425 1667 1481 1423 1472 1621 1793 1844 1830 1786 1614 1722 1736 1759 1822 2042 1765 1512 1433 1502 1443 1570 1758 1782 1433 1543 1350 631 588 1024 690 1030 1606 1617 1436 1569 1084 1416 592
642 798 871 908 1166 1377 1146 1536 1568 1218 1023 1326 1440 1859 1692 1697 1584 1669 1970 1964 1595 1526 1494 1533 1679 1845 1550 1575 1575 1708 1705 759 165 863 919 835 1381 1361 1105 1609 1657 1051 1083
469 603 835 974 1238 1171 1044 1326 1487 1204 1170 1341 1805 1827 1619 1719 1673 1686 1872 1739 1812 1494 1561 1416 1724 1563 1864 1426 812 1239 1634 658 310 360 524 921 1373 1148 1109 1641 1373 1574 1414
514 569 728 897 1185 1193 1079 1207 1257 1251 1195 1056 1168 1798 1580 1213 1405 1759 1817 1866 1866 1617 1583 1893 1810 1806 1651 1682 812 796 856 691 545 421 287 798 1343 1255 1150 1221 1642 1190 1328
514 528 704 921 1190 1289 1415 1087 1088 1349 1064 853 1163 1215 1021 1170 1689 1847 1701 1694 1918 1457 1427 2279 1864 1712 1558 1392 1020 675 846 858 800 832 583 686 1363 1491 1171 1303 1580 1515 1542
450 516 759 940 1107 1265 1262 1435 1496 1457 1157 1168 821 821 1046 1154 1857 1855 1778 1542 1802 1919 2093 1736 2094 1599 1677 1574 1609 1016 668 666 841 1023 898 726 1251 1434 1456 1243 1166 1677 1695
426 536 702 954 1036 1253 1292 1320 1496 1302 1063 746 666 1041 951 1104 1699 2034 2079 1714 2014 2011 2314 2142 1540 1393 81 17 105 74 94 477 469 830 1159 637 558 1020 1113 1619 1363 1200 1430
456 643 761 738 931 1160 1185 1267 1170 1085 860 583 584 650 877 1080 1615 1877 1993 1698 1709 2173 2641 1890 1234 1173 439 22 8 107 256 140 47 640 883 938 885 680 825 1050 1601 1332 1285
722 700 755 843 872 1036 1167 1147 1102 920 581 462 506 592 975 1358 1631 1729 1827 1772 2007 1840 2183 1689 1368 967 153 57 71 99 224 145 239 275 559 881 1043 1073 749 730 1077 1421 1144
865 961 859 847 972 1086 980 1007 853 696 392 281 423 860 1173 1638 1777 1950 1811 2137 1977 1830 1875 1651 1369 642 85 155 0 166 189 293 285 321 329 209 680 1137 1097 956 908 859 844
863 1006 1147 1137 1537 1080 919 731 504 307 423 831 1269 1591 1700 1766 2015 2201 1913 2103 2078 2007 1976 1764 1111 750 0 158 0 202 198 192 161 171 238 654 1082 1217 1290 1159 1036 1328 1211
973 1124 1399 1574 1655 1355 1075 1093 612 736 607 1226 1657 1740 1756 1919 2239 2230 2137 2044 2088 1921 2099 1741 1036 470 192 124 4 126 58 145 101 57 281 734 1190 842 828 902 982 1230 1088
1123 1307 1670 1991 1960 1620 1529 1037 907 1032 1227 1370 1601 1766 1853 2034 2280 2347 2330 2073 2207 2097 1758 1800 1013 584 48 140 15 50 56 45 195 45 175 573 860 499 480 267 269 768 680
1280 1238 1730 1816 2079 1700 2004 1478 1639 954 837 1016 1500 1738 1803 2052 2176 2267 2343 2145 2320 1953 1938 1720 1092 569 105 111 19 0 93 296 86 71 91 281 442 375 384 95 121 381 281
832 945 1164 1806 1993 2014 1987 1946 1627 1618 1099 1121 1357 2156 2703 2229 2081 2007 2322 2286 2303 2112 2103 1912 1167 563 129 91 60 1 6 17 111 83 67 65 132 89 169 129 36 127 301
866 771 839 1678 1896 1990 1956 2009 2163 2144 1959 1378 1479 1473 1470 1525 1693 2069 2118 2379 2348 2180 2183 1921 1422 854 309 151 166 124 13 0 22 89 69 81 54 18 0 2 24 13 198

GFSSE_con_sbcape_036.txt.gz
CAPE
320 560 502 454 818 1472 1757 2447 2860 3055 2767 2586 2077 1921 2221 1995 1797 1820 1753 1770 1338 1523 1596 1633 1576 1641 1621 1379 1361 1054 796 694 885 1456 1537 1315 1104 1242 1529 1528 1600 1138 1950
262 461 421 779 1288 1646 1944 2420 3038 2955 2481 2151 2105 2253 1935 1828 1853 1738 1930 1716 1667 1375 1585 1575 1597 1666 1630 1339 1483 1458 1102 498 831 1095 1338 1269 1458 1044 783 1131 1722 1811 1891
137 231 616 1439 1643 2003 2266 2731 2743 2277 1977 2316 2154 1871 1931 1857 1838 1731 1573 1566 1767 1677 1596 1719 1628 1341 1394 1465 1566 1162 1133 645 897 791 899 701 1047 741 437 1201 1807 1861 1911
142 786 872 1726 2090 2106 2312 2604 2683 1938 2023 1991 1951 1996 1872 1882 1768 1626 1654 1907 1808 1687 1896 1829 1652 1322 1263 1213 1134 1233 1302 869 923 916 964 586 566 679 1068 933 1440 1721 1763
335 729 1180 1687 2092 2142 2224 2336 2480 1998 1970 1932 1918 1892 1882 1780 1638 1680 1872 1616 1816 1653 1723 1746 1760 1527 1262 1091 1040 1000 1241 1208 598 732 943 1354 474 1160 1270 1420 1480 1258 1033
416 686 1148 1728 1972 2213 2081 1985 1919 1984 1973 2020 1950 1816 1690 1570 1616 1688 2003 1844 1818 1603 1604 1677 1629 1427 1246 1176 1233 1092 1033 1485 968 118 604 1003 1104 1174 1290 1123 1419 1464 909
493 775 1302 2251 2424 2398 2119 1943 1936 1921 2012 1990 1816 1720 1607 1504 1529 1577 1725 1976 1883 1650 1601 1493 1479 1427 1384 1318 1388 1344 1339 1359 979 246 1063 1458 757 1274 1475 1516 1631 1482 1493
438 417 930 2105 2194 2337 2074 1882 1768 1821 1958 1989 1852 1730 1633 1554 1497 1502 1576 1756 1708 1595 1468 1484 1373 1261 1381 1462 1593 1277 1089 928 1010 234 804 1353 1370 1398 1595 1733 1749 1679 1578
322 313 543 1003 1655 2114 2047 1838 1837 1821 1858 1929 1891 1758 1623 1555 1516 1482 1489 1514 1461 1534 1379 1429 1489 1428 1456 1501 1642 1475 1127 687 1247 458 560 973 1423 1337 1546 1869 1863 1749 1726
342 285 491 805 991 1214 1508 1757 1867 1913 1871 1839 1798 1707 1623 1578 1481 1588 1429 1525 1539 1343 1479 1453 1494 1572 1618 1585 1802 1269 1170 836 1288 1001 287 1583 1677 1482 1313 919 1624 1294 1590
394 353 388 524 877 1092 966 1274 1584 1782 1868 1870 1786 1591 1463 1825 1740 1742 1444 1858 1388 1313 1342 1451 1452 1578 1733 1899 1782 1545 1535 608 1002 1050 926 1685 1654 1550 1370 1307 1132 967 824
505 359 348 425 670 909 653 1115 1149 869 861 1027 1417 1548 1892 1913 1891 1688 1674 1877 1456 1370 1481 1528 1710 1609 1562 1365 1227 2014 1041 484 533 790 1190 1348 1497 1402 1349 1605 1261 1434 628
537 372 359 518 846 844 714 1018 1043 826 871 1311 1772 1750 1802 1821 2029 1763 1890 1666 1807 1635 1790 1475 1567 1378 1537 1187 343 107 211 427 98 175 654 1050 1145 1290 1195 1292 1431 1224 1184
631 569 572 674 926 846 784 880 831 579 610 649 822 1656 1962 1868 1794 1915 1718 1671 1816 1936 1319 1013 858 1058 1343 1245 193 43 40 82 82 61 669 1045 1267 988 1137 1297 1550 1467 1433
709 727 759 936 1225 1158 1052 700 617 705 497 395 750 1196 1452 1486 1911 1834 1725 1556 1632 1760 1114 1272 1114 968 1112 751 321 213 40 56 159 203 641 1152 1398 1232 1043 1247 1349 1291 1496
674 688 718 922 1142 1228 1222 1137 938 942 603 590 495 761 1495 1587 2169 1884 1738 1491 1474 1658 1616 643 1095 1077 1392 1093 948 503 48 96 335 259 239 730 1163 1305 984 1083 1481 1671 1713
706 751 743 970 1061 1314 1330 1389 1321 845 721 518 459 950 1413 1657 2137 1844 1491 1608 1377 1422 1331 1284 1680 1688 767 400 430 440 32 95 136 279 139 385 606 943 1077 1059 1182 1467 1667
724 855 876 816 914 1292 1325 1390 1077 972 791 478 428 810 1255 1453 2082 2177 2037 1652 2025 1374 1128 1247 1589 1085 608 215 59 139 40 59 88 133 88 236 234 660 757 1209 1054 1039 1068
686 820 970 1016 933 1163 1452 1390 1305 1098 993 428 418 801 1132 1566 1903 2364 1875 1742 2328 2296 1310 1388 1321 954 323 160 121 71 161 169 174 74 191 273 585 505 615 900 1200 1144 1091
756 878 1163 1121 1274 1496 1450 1629 1198 906 779 345 507 754 1174 1648 1795 2444 1909 1671 1785 1770 1551 1572 1624 915 135 35 1 16 134 172 185 151 99 105 366 820 648 672 858 922 765
954 1125 1297 1383 1850 1655 1485 1267 968 622 437 298 538 911 1689 1990 2345 2798 2260 2234 2190 1716 1765 1718 1177 1208 166 8 18 49 117 111 202 93 100 163 132 237 277 507 855 550 1035
1075 1336 1727 1724 1957 2085 1561 1523 711 512 167 289 790 1373 2323 2569 2637 2907 2945 2250 2364 2058 2265 1967 1677 538 258 11 27 68 78 57 68 105 256 119 184 56 42 55 178 405 457
977 1282 1846 2400 2329 2315 2306 1360 1085 593 489 485 1018 1784 2449 2481 2679 3055 2698 2636 2452 2449 1846 2247 1882 1284 238 0 123 132 42 146 53 65 364 67 129 78 13 0 71 352 151
1163 1362 2104 2398 2725 2485 2431 1947 2455 888 645 550 1259 1566 1750 2488 2548 2646 2861 2919 3031 2226 2048 2206 1829 1431 1177 14 4 6 256 650 60 59 36 280 163 77 59 19 12 0 0
1108 1296 1713 2425 3236 3344 2754 2640 1893 2072 727 713 903 2715 3261 2738 2607 2315 2778 2973 2959 2781 2492 2639 2229 2137 1055 128 1 0 36 23 187 108 89 140 208 62 112 48 30 40 31
951 1293 1706 2931 3568 3075 2853 2579 3480 3292 2443 1258 1805 1720 1833 1789 2006 2478 2387 3015 3075 2819 2759 2835 2711 2204 1756 723 33 77 0 0 11 86 72 79 106 149 35 21 26 15 42

GFSSE_con_sbcape_042.txt.gz
CAPE
239 211 737 940 1346 2443 2427 2446 2561 2543 2556 2486 2467 2388 2340 2188 2267 2237 2204 2105 2088 1973 1749 1955 1782 1393 1325 1423 1359 586 708 1363 1376 1537 1316 1395 1639 1578 1566 1647 1538 1575 2186
80 517 961 1666 2161 2544 2597 2740 2619 2591 2552 2597 2464 2364 2164 1987 2054 2000 2140 1848 1851 1869 1748 1896 1742 1430 1497 1634 1408 824 482 934 1104 1376 1408 1113 803 1133 1718 2361 1907 2162 2005
94 318 1022 2180 2275 2385 2561 2437 2535 2488 2470 2423 2347 2401 2183 1820 1962 2085 2022 1821 1749 1820 1772 1561 1511 1529 1520 1538 1273 1095 484 933 999 900 1101 779 273 1076 1580 1606 1980 2035 1895
39 373 1018 2170 2314 2337 2333 2581 2475 2427 2019 2371 2415 2164 2123 1602 1968 2036 1716 1726 2053 1850 1722 1546 1384 1338 1297 1228 1336 1329 664 602 890 935 801 939 15 738 1746 1688 1593 1602 1750
47 408 1453 1945 2120 2131 2592 2548 2516 2378 2136 2108 2006 2010 1629 1715 1896 1693 1778 1662 1736 1695 1677 1539 1495 1293 1158 1097 1090 1148 1281 626 656 1064 1115 1444 556 1077 1288 1353 1380 1478 1865
442 836 1767 2148 2049 2442 2550 2475 2342 2213 1991 2091 1917 1612 1640 1793 1983 1897 1820 1622 1667 1630 1574 1476 1422 1340 1225 1309 1146 1044 1260 1337 1203 1128 1126 1441 1141 1260 1311 1589 1397 1532 1440
454 1051 1513 2326 2335 2592 2437 2371 2279 2069 1848 1932 1740 1562 1575 1640 1791 1995 1909 1654 1614 1617 1576 1540 1526 1524 1483 1447 1252 1061 1366 1389 1115 635 499 1101 1616 2073 1479 1644 904 1298 1069
603 649 1400 2201 2363 2415 2138 2183 2319 1918 1720 1762 1647 1562 1591 1574 1638 1828 1800 1691 1515 1491 1480 1368 1377 1484 1535 1599 1309 1194 1153 1444 968 1696 906 1342 2269 2148 1761 1582 1566 1401 1445
630 895 1344 1598 1799 2075 2325 1959 1893 1819 1774 1768 1597 1540 1548 1572 1531 1567 1616 1652 1603 1540 1537 1501 1436 1491 1473 1580 1353 1004 1027 1349 1691 1609 1028 1296 2341 2055 1880 1711 1626 1781 1673
575 802 1235 1348 997 1233 1418 1639 1733 1762 1694 1702 1656 1575 1558 1559 1563 1393 1954 1893 1605 1661 1565 1528 1471 1506 1597 1609 1537 1142 766 1597 949 1076 987 1424 2210 1767 1869 1732 1823 1777 1727
580 499 515 504 1362 1770 1555 1483 1688 1672 1576 1571 1529 1477 1772 2155 1665 1683 2220 2082 1387 1344 1477 1400 1357 1517 1641 1945 1931 1564 1190 703 797 918 1130 2106 2168 1384 959 1739 1219 1793 1688
183 139 192 489 975 1176 576 1680 1875 1259 1059 1445 1289 0 0 1687 1847 1807 1615 2209 1247 1282 1360 1573 1106 1419 1351 964 1891 2215 1919 932 1252 551 1357 2428 2143 1687 1188 1314 794 1190 1679
414 48 200 791 1202 895 995 1084 1253 1168 1234 873 463 21 241 1099 2078 1856 1654 1015 163 974 1238 1368 648 1441 1681 1297 1117 1295 1562 1149 1093 626 1620 2398 2301 1748 1527 1512 1337 559 759
450 238 294 891 1294 1050 1030 535 1017 956 933 1334 1708 1649 2273 1384 1031 1069 1283 930 311 739 1380 1334 1638 1317 1303 1638 799 264 73 169 443 421 1328 2022 2090 1663 1478 1562 1508 1329 817
508 293 516 1044 1736 2331 2386 911 909 1650 1055 1579 2144 2445 2205 1079 1597 1331 1804 1149 1573 1310 1354 2206 1723 1339 103 1063 816 882 62 289 396 150 725 1737 1851 1849 1923 1625 1314 1529 1466
468 442 887 1234 1746 2579 2394 3233 1523 2144 1017 1395 1500 2080 2574 1715 1875 2866 2014 1810 2049 735 943 2055 2417 2102 1484 884 245 913 51 323 524 435 498 1388 1944 1785 1911 1831 1555 1355 1540
566 536 960 1300 1343 2262 2375 2275 2436 2134 597 1094 1521 2666 2063 2645 2942 3221 2295 1955 1221 2389 2635 1954 2171 834 425 1142 297 210 520 273 44 406 363 476 1410 1800 1860 1902 2039 2242 1609
451 842 1114 442 1155 1458 1959 2340 2075 1352 1449 1506 1497 2183 2408 2508 2690 2359 573 1572 1436 2901 2340 2340 852 1727 1118 1057 572 574 111 328 300 418 176 396 557 528 1581 1992 2044 2192 1756
692 1275 1433 1294 1286 1454 2376 2059 1714 1832 1962 1797 1766 2007 2690 2988 2980 2857 1289 647 920 2685 1668 1993 1361 1777 1208 413 8 609 437 31 18 52 244 434 710 166 462 1847 1949 2033 1488
1083 1565 1440 1419 2218 1961 1819 2222 1692 1373 1623 1649 1927 1874 2761 2882 2967 2762 1154 923 2230 951 2630 2506 2086 824 1110 150 28 188 282 40 23 121 191 197 683 718 399 661 1424 1005 1595
1086 1635 1593 1965 2549 2078 1841 1701 1680 1175 1466 1758 1877 2214 3105 3129 3237 3053 2590 1859 2794 2257 1542 2835 1265 1587 1289 136 385 369 364 305 600 189 58 61 427 187 305 1227 478 616 717
1006 1597 1948 1933 2600 2399 2017 1903 1685 1994 1314 1303 1591 2507 2571 2776 3094 3680 2283 2794 2330 2467 2851 2222 2600 1893 977 980 530 51 178 425 174 64 330 394 225 397 210 238 627 1066 403
1224 1579 2002 2101 2847 2637 2262 2383 2700 2483 2680 1867 1294 1394 2207 2842 3252 3193 2964 2798 2593 3483 3027 2975 2182 2111 546 287 990 231 298 296 158 187 236 49 138 10 10 181 221 715 356
1074 1463 2041 2242 2379 2724 2707 2103 2354 1409 1124 985 1263 1238 1855 2279 2721 3262 3024 2596 3404 2580 2296 2599 3032 2799 1896 736 179 518 1274 1690 965 158 315 189 360 97 303 96 70 72 7
1032 1485 1953 2356 2541 2834 2167 2911 2026 1855 1168 1094 1338 1597 2417 2819 3243 3274 3360 3147 3970 2797 2978 2697 3113 2666 2960 1947 727 344 765 1013 1087 328 287 356 242 536 536 292 20 17 173
1128 1631 1865 2582 2677 2955 2887 2318 3335 1995 1893 960 1047 1471 2127 2847 2756 3650 3476 3386 3551 3542 3383 3337 4075 3527 3078 2877 2007 934 409 205 486 302 352 500 366 682 414 150 94 132 121

GFSSE_con_sbcape_045.txt.gz
CAPE
86 336 1228 1681 1662 1832 2001 1969 2159 2343 2033 2624 2380 2212 1929 2131 2061 2543 2440 2115 1919 2072 1908 1737 1344 1410 1637 1539 650 592 1409 1456 1575 1372 1598 1826 1783 1891 1777 1691 1918 1603 1990
36 414 1679 2063 2361 1994 2316 2490 2471 2254 2221 2166 2506 2114 2190 2010 1986 1993 2193 1876 1773 2072 1864 1889 1301 1629 1626 1460 1102 521 1128 1061 1473 1427 969 1342 1695 1783 2289 1697 2047 1938 2079
188 631 1640 2378 2453 2370 2250 2549 2290 2152 1838 2032 2252 2422 1868 1737 2011 1910 1800 1805 1859 1720 1597 1638 1575 1569 1569 1328 1288 602 940 1187 995 1117 1081 180 1254 1548 1773 2080 2143 2045 1978
146 774 1438 2352 2406 1933 2395 2515 2323 1735 1921 2115 2497 2353 1956 2274 2248 1830 1904 2098 1888 1697 1572 1449 1460 1464 1375 1334 1402 1126 562 1017 1116 893 470 628 908 1516 1666 1857 1780 1930 1779
180 1032 1455 2282 2459 2324 2300 2334 2581 2289 1802 1947 2250 1857 1978 2501 1973 1828 1717 1774 1727 1685 1578 1555 1395 1303 1225 1149 1100 1156 978 646 991 1051 691 224 306 1440 1338 1510 1716 1749 1674
738 1195 2046 2218 2175 2412 2325 2309 1988 1898 1746 2182 2220 1900 2076 2161 1919 1832 1732 1765 1702 1640 1574 1513 1451 1364 1327 1254 1027 1053 1154 1109 1201 880 775 1073 811 1494 1896 1827 1734 1700 1977
876 1405 1702 2374 2335 2508 2233 2020 2095 1893 1829 2010 1975 1766 1886 1997 2076 1929 1782 1781 1745 1690 1640 1615 1605 1552 1553 1325 1061 1048 1291 1355 811 666 1092 1197 1525 2178 1820 1352 1262 1220 1771
884 1273 1540 1973 2504 2411 1788 1771 2208 1779 1722 2062 1958 1656 1730 1801 1962 2512 1803 1683 1677 1641 1510 1453 1495 1542 1639 1402 1187 1204 1263 1500 935 765 1148 1448 2263 2176 1787 1682 1465 1470 1677
704 1158 1426 1587 1525 1796 2345 1938 1948 1716 1803 1804 1665 1622 1606 1617 1687 1796 1883 2054 1711 1686 1603 1536 1479 1493 1612 1499 1216 1115 1134 1528 812 870 1298 1639 2509 2007 1812 1711 1774 1765 1697
840 1191 1232 1226 1171 1430 1561 1862 1828 1738 1827 1735 1694 1610 1539 1454 1389 1588 2003 2077 1768 1650 1578 1500 1506 1538 1632 1594 1498 1180 867 1576 712 675 875 1744 2481 2023 1931 1821 1850 1853 1778
668 967 939 855 865 958 1062 1375 1649 1693 1737 1766 1713 1689 1474 1160 1175 1213 1493 1906 1547 1459 1487 1391 1480 1675 1749 1713 1728 1458 1210 485 967 689 1063 1988 2157 1725 1609 1691 1913 1849 1864
492 591 540 526 603 788 956 1122 1174 1240 1160 1133 1000 0 0 80 888 1407 1574 2074 1572 1545 1822 1554 1361 1735 1399 739 1471 1870 1252 479 549 832 1261 2306 2123 1045 1535 1153 1729 1859 1825
182 174 77 502 661 524 786 900 1027 747 632 839 115 14 1 971 745 734 840 561 0 86 612 848 432 562 779 845 834 1324 1411 575 350 756 1758 2377 2431 1615 1458 1115 697 1509 1750
35 0 0 319 509 347 356 475 664 620 620 349 440 120 0 423 0 420 738 210 130 203 480 1007 773 746 593 873 958 687 1008 752 179 875 1977 2577 2526 1759 1678 1660 1102 592 791
35 0 16 207 355 418 205 35 244 393 536 505 737 445 611 403 98 880 934 544 289 344 451 1065 1045 669 133 76 150 38 393 104 134 435 1140 2212 2340 2120 1758 1420 1544 1466 1180
24 0 106 193 511 375 825 554 180 883 346 1124 1378 1219 642 649 733 907 862 842 790 491 0 1233 1137 1012 698 508 111 41 52 52 43 247 596 1260 2109 2010 2169 1747 1424 1517 1584
23 51 130 204 795 675 732 824 1035 918 217 250 1287 1249 1068 535 637 1018 1065 898 495 613 304 1315 956 249 134 178 54 2 39 62 50 188 343 793 1480 2057 2170 2189 1946 1916 1584
94 228 272 271 727 1035 734 816 1018 706 805 401 1077 1036 1221 1404 1545 444 477 838 724 1037 1169 888 1019 512 121 429 50 42 47 45 55 120 181 355 730 748 1932 2275 2112 2227 1543
65 274 305 244 395 1018 783 1039 721 764 814 786 1107 997 1033 1274 1650 555 419 208 0 1047 1288 1029 335 725 411 443 53 31 4 23 29 122 49 182 217 406 577 2117 2120 2114 1764
6 142 88 319 265 542 985 1106 634 465 701 737 688 1090 1379 1497 1802 1383 684 168 139 845 1442 1264 226 25 41 24 23 32 5 21 24 34 77 200 139 102 319 831 946 1108 1643
117 318 77 519 569 350 1203 925 943 449 533 616 499 1569 1565 1573 1740 1342 668 636 664 1041 588 1311 149 202 74 16 68 43 6 31 18 9 45 259 121 117 247 316 519 317 841
364 257 410 700 879 517 856 540 734 705 480 577 424 1327 1716 1773 1827 1737 1330 1249 1209 1002 937 1190 576 413 39 19 50 16 0 14 3 19 29 105 141 35 92 194 202 174 265
465 313 477 570 1215 762 888 812 801 809 668 707 470 243 1634 1475 1558 1976 1447 1449 863 1364 1078 1062 621 692 1 14 38 0 22 34 32 18 4 20 13 0 1 246 232 102 163
499 577 438 771 1551 1061 1094 1028 858 696 508 754 343 329 1037 1661 1749 1638 1719 1444 1350 1342 1332 1118 901 342 0 0 0 75 32 81 7 0 18 0 0 0 0 0 133 135 33
364 790 681 748 1309 1344 1139 939 1016 837 601 221 510 316 917 986 1266 2238 1651 1606 1384 1577 979 919 1651 1063 127 80 0 0 0 12 25 4 5 0 0 0 0 0 0 0 0
543 852 984 839 1107 1372 1228 1264 870 1004 476 562 95 237 796 1380 1546 1958 2082 1837 1948 1611 1388 1389 1364 775 1215 853 197 0 0 0 0 11 25 11 9 11 0 0 0 0 0

GFSSE_con_sbcape_048.txt.gz
CAPE
54 229 1536 1881 1600 1820 1886 1687 2019 2297 2208 2122 2072 2076 1988 2034 2120 2322 2468 2238 2253 1889 1739 1437 1716 1859 1407 478 989 1523 1513 1561 1588 1942 1964 2070 2047 2016 2125 2014 1864 1614 1907
16 429 1635 2288 1895 1872 2106 2013 2241 2199 2138 1906 2360 2334 1989 1864 1956 2082 2371 2110 2070 2018 2000 1491 1817 1785 1506 803 953 1142 1522 1651 1438 1303 1672 2017 2034 1853 2107 1953 1958 1720 1899
198 958 1321 2173 2094 1919 2406 2095 2211 1653 1889 2183 1912 1919 1946 1994 1935 1909 2034 1875 1895 1785 1852 1636 1716 1757 1475 1059 869 1360 1276 1154 1497 809 1598 1130 1472 1896 1801 2170 1941 1956 1802
419 1182 1693 2278 2142 1852 2218 2183 2189 1893 1956 2010 1875 1914 2151 1963 1874 2296 2023 1968 1817 1679 1630 1676 1650 1423 1538 1367 940 1102 1189 1307 1302 1153 373 409 831 1760 2060 1976 1947 1795 1749
827 1226 1590 2500 2486 1949 1859 2178 2060 2042 2161 1691 1842 2067 1999 2177 1790 1799 1896 1759 1784 1723 1693 1553 1470 1407 1359 1269 1064 895 1067 1436 1220 802 337 301 922 1627 1700 1843 1868 1638 1716
943 1203 2120 2321 1803 1922 2083 1707 1916 1689 2104 1777 1979 2229 2162 1946 1796 1854 1789 1756 1735 1709 1656 1593 1511 1429 1469 1248 1194 1329 977 1096 1180 488 530 1138 836 1563 1991 1806 1604 1760 1540
1084 1455 1683 2707 2449 2219 1867 1839 1645 1799 1801 1805 1957 2019 2166 2088 2025 1932 1968 1893 1854 1794 1749 1755 1696 1657 1477 1353 1241 1423 1359 1238 757 865 816 1106 1651 2365 1880 1671 1599 1764 1636
1279 1503 1694 2339 2530 2097 1698 1755 1782 1736 1605 1770 1783 1866 1955 2145 2085 1912 1820 1796 1740 1658 1556 1608 1636 1710 1613 1340 1256 1447 1551 1335 1016 992 1173 1431 2323 1853 1387 1229 1577 1693 1601
1332 1421 1567 1539 1563 1708 1894 1961 1684 1732 1723 1740 1778 1756 1754 1794 1861 1924 1872 1796 1724 1693 1648 1661 1701 1653 1594 1353 1299 1262 1949 1376 811 1092 1472 1677 2466 1946 1701 1548 1690 1606 1656
1198 1362 1278 1124 1129 1437 1566 1889 1709 1842 1794 1751 1733 1698 1608 1502 1499 1639 1898 2107 1675 1591 1545 1584 1704 1732 1603 1676 1415 1151 1432 1580 659 1084 1329 1964 2434 1821 1860 1891 1838 1766 1673
1191 1235 1073 947 1061 1105 1211 1465 1653 1884 1865 1809 1623 1720 1455 851 981 1204 1519 1655 1518 1450 1467 1310 1543 1772 1648 1578 1539 1556 873 531 535 828 1359 2287 2373 1829 1808 1788 1959 1802 1752
905 1023 894 808 787 822 1301 1175 1011 1221 1332 1125 666 2 0 217 760 1267 1399 1646 1511 1677 1681 1622 1202 1450 1435 589 873 1619 475 418 496 860 1350 2276 2221 1476 1498 1759 1843 1952 1923
780 872 630 554 537 694 855 827 759 804 761 582 7 0 7 655 666 780 795 115 0 25 211 713 509 73 619 632 629 1187 1367 473 508 802 1564 2309 1758 1472 1115 1465 1829 1721 1834
638 634 399 359 516 255 622 604 593 508 360 324 85 0 99 34 259 102 390 16 37 5 65 450 789 741 698 589 660 797 725 382 248 922 1680 2444 2175 1589 1237 783 1061 1489 1642
317 237 240 329 322 154 156 154 328 315 349 207 250 28 108 0 0 66 279 369 134 245 280 504 755 731 293 36 28 373 620 290 336 1076 1391 2356 2309 2187 1653 1387 763 606 759
88 55 89 315 180 199 16 0 20 106 191 246 361 321 336 273 293 515 544 579 331 287 390 86 716 622 245 96 32 222 164 52 91 648 857 1602 2383 2308 2054 1494 1535 1448 1316
6 0 33 175 153 92 0 0 0 176 125 387 618 694 393 3 390 609 419 612 538 363 315 223 649 89 34 124 1 59 54 28 50 173 433 813 1598 2482 2082 1731 1658 1653 1610
16 0 18 137 318 5 499 307 472 123 4 324 819 853 503 254 585 562 595 518 450 630 760 722 649 200 33 186 29 48 48 44 47 148 322 590 813 1077 2155 2338 2333 2018 1500
0 0 25 26 487 30 454 252 379 380 321 309 581 596 877 980 434 35 223 388 223 228 1137 744 329 305 145 186 61 33 31 80 47 72 143 146 304 419 854 2021 1962 2118 1608
0 0 0 13 482 143 382 158 154 136 113 278 687 529 653 1047 560 162 269 0 0 795 725 700 337 68 95 91 114 32 6 30 58 45 63 74 79 143 251 992 1092 1100 1636
65 55 33 21 243 318 438 270 99 42 14 104 153 626 735 877 1243 761 507 236 159 635 684 310 0 0 0 16 26 1 13 33 37 34 13 45 9 7 124 273 379 326 758
87 93 50 17 15 412 331 344 126 7 0 43 25 875 848 1010 1269 852 490 476 507 889 338 572 77 145 0 3 32 7 0 13 1 0 0 79 0 0 118 86 85 33 190
50 108 78 57 4 162 414 202 308 257 100 128 66 365 996 1095 1281 1241 869 964 789 841 632 637 258 2 0 12 4 0 11 0 0 0 0 0 0 0 0 83 34 37 22
20 73 173 215 141 57 436 254 426 455 572 178 101 0 915 1101 1248 1453 1044 1012 638 771 901 796 101 163 0 0 0 32 0 3 0 0 0 0 0 0 0 14 75 42 37
63 109 140 528 322 269 506 358 228 272 297 78 142 61 255 1027 903 1035 1283 1056 760 902 830 535 908 294 0 0 0 0 0 0 0 0 0 0 0 0 0 0 51 33 10
126 58 244 605 527 454 548 434 352 251 186 187 74 25 14 486 737 1365 1215 1038 878 854 974 502 956 513 169 0 0 0 0 0 0 4 1 0 0 0 0 0 0 2 0